This is the latest recevied weather packets stored in our database for station/object OK2ILA-6. If no packets are shown the sender has not sent any weather packets the latest 10 day(s).
| Time | Temp. | Humidity | Pressure | Rain* | Wind** | Luminosity | Snow |
|---|---|---|---|---|---|---|---|
| 1787607602 | 12.78° C | 80% | 1021 hPa | - | - | - | - |
| 1787607002 | 12.78° C | 80% | 1021 hPa | - | - | - | - |
| 1787606403 | 13.33° C | 78% | 1020.7 hPa | - | - | - | - |
| 1787605803 | 13.33° C | 77% | 1020.8 hPa | - | - | - | - |
| 1787605203 | 13.33° C | 77% | 1020.7 hPa | - | - | - | - |
| 1787604602 | 13.89° C | 76% | 1020.6 hPa | - | - | - | - |
| 1787604002 | 13.89° C | 76% | 1020.6 hPa | - | - | - | - |
| 1787603403 | 14.44° C | 76% | 1020.5 hPa | - | - | - | - |
| 1787602803 | 14.44° C | 74% | 1020.6 hPa | - | - | - | - |
| 1787602203 | 14.44° C | 74% | 1020.4 hPa | - | - | - | - |
| 1787601602 | 15° C | 74% | 1020.5 hPa | - | - | - | - |
| 1787601003 | 15.56° C | 72% | 1020.6 hPa | - | - | - | - |
| 1787600403 | 15.56° C | 71% | 1020.8 hPa | - | - | - | - |
| 1787599803 | 16.67° C | 68% | 1020.7 hPa | - | - | - | - |
| 1787599203 | 16.67° C | 67% | 1020.7 hPa | - | - | - | - |
| 1787598602 | 16.67° C | 66% | 1020.7 hPa | - | - | - | - |
| 1787598003 | 17.22° C | 63% | 1020.8 hPa | - | - | - | - |
| 1787597403 | 17.78° C | 62% | 1020.6 hPa | - | - | - | - |
| 1787596803 | 17.78° C | 60% | 1020.7 hPa | - | - | - | - |
| 1787596202 | 17.78° C | 59% | 1020.6 hPa | - | - | - | - |
| 1787595602 | 18.33° C | 58% | 1020.6 hPa | - | - | - | - |
| 1787595003 | 18.33° C | 58% | 1020.4 hPa | - | - | - | - |
| 1787594403 | 18.89° C | 56% | 1020.4 hPa | - | - | - | - |
| 1787593803 | 18.89° C | 55% | 1020.4 hPa | - | - | - | - |
| 1787593203 | 19.44° C | 54% | 1020.4 hPa | - | - | - | - |
* Rain since midnight (hover to see other rain measurements)
** Current wind speed in m/s (hover to see current wind gust speed)